www.pogodaiklimat.ru

Погода и климат >> Архив погоды >> Норвегия >> Кёутукейну


ПОГОДА в Кёутукейну

  • Прогноз погоды в Кёутукейну
  • Монитор погоды в Кёутукейну

АРХИВ ПОГОДЫ в Кёутукейну

Время (UTC), дата Ветер
(напр.,м/с)
 
Видим.   Явления Облачность Т
(С)
Тd
(С)
f
(%)
Тe
(С)
Тes
(С)
Комфортность P
(гПа)
Po
(гПа)
Тmin
(С)
Tmax
(С)
R
(мм)
R24
(мм)
S
(см)
00 16.09 В 1 60 км 10/0
[]
-1.1 -2.4 91 -3 -3 999.7 961.9
06 16.09 штиль 0 30 км слаб. переохл. дождь (гололёд) 10/0 1000 м
[As op]
+1.0 -0.3 91 -0 -0 999.0 961.5 -3.1 +3.2 0.1
09 16.09 С 5 30 км слаб. дождь 10/8 300 м
[Sc As op]
+4.5 +3.2 91 -0 -0 998.8 961.8
12 16.09 С 5 30 км слаб. дождь 10/0
[As op]
+5.9 +4.4 90 +1 +2 999.3 962.5
15 16.09 СВ 5 50 км {дождь} 10/4 300 м
[Sc As op]
+6.3 +2.9 79 +2 +2 1000.1 963.3
18 16.09 СВ 3 60 км {дождь} 10/5 600 м
[Sc As op]
+4.7 +2.2 84 +1 +1 1000.9 963.9 +1.0 +6.9 1
00 17.09 СВ 3 60 км 10/0
[As op]
+4.3 +2.0 85 +1 +1 1001.7 964.6
06 17.09 СВ 3 50 км {дождь} 10/0 600 м
[As op]
+3.9 +2.6 91 0 0 1003.1 965.9 +3.5 +4.7 0.2
09 17.09 В 5 55 км 10/10 300 м
[Sc]
+4.6 +0.4 74 0 0 1004.5 967.3
12 17.09 В 3 60 км 9/5 300 м
[Cb calv Ac As]
+5.5 -0.5 65 +3 +3 1005.3 968.2
15 17.09 СВ 3 60 км 8/4 300 м
[Cb calv Ac As]
+5.6 -0.2 66 +3 +3 1005.9 968.8
18 17.09 СВ 3 60 км 6/3 600 м
[Sc diur, vesp Ac As]
+0.1 -2.1 85 -5 -5 1007.4 969.5 +0.1 +6.2
06 18.09 штиль 0 60 км 10/0 1000 м
[As op]
+1.1 -0.2 91 -0 0 1009.7 971.9 -0.3 +1.2
09 18.09 С 3 60 км 9/5 600 м
[Cu med, cong Ac As]
+3.1 -1.2 73 -1 -0 1010.5 972.9
12 18.09 С 3 60 км 9/8 600 м
[Cu med, cong Ac As]
+5.4 -3.9 51 +3 +3 1010.5 973.2
15 18.09 штиль 0 55 км {ливн. осадки} 8/5 300 м
[Sc Ac cuf]
+3.8 -2.4 64 +3 +3 1010.9 973.4
18 18.09 С 3 60 км {ливн. осадки} 4/4 600 м
[Sc]
+1.4 -1.8 79 -3 -3 1011.7 973.8 +1.1 +6.3 0.3
06 19.09 СВ 3 60 км 9/0 2000 м
[Ac As]
-1.2 -2.6 90 -6 -6 1011.6 973.4 -2.1 +1.4
09 19.09 СВ 5 60 км 9/6 600 м
[Cu Sc As op]
+3.1 -2.2 68 -2 -2 1011.2 973.6
18 19.09 С 5 60 км 9/5 600 м
[Sc As op]
+2.7 -4.5 59 -2 -2 1010.7 973.0 -1.2 +4.1
06 20.09 СЗ 5 60 км 8/0 2000 м
[Ac As]
+1.9 -0.7 83 -4 -4 1009.8 972.1 +0.8 +2.7
09 20.09 СЗ 5 60 км 9/9 600 м
[Sc]
+4.9 -1.3 64 +1 +1 1009.7 972.4
12 20.09 СЗ 5 60 км 9/8 600 м
[Frnb Ac As]
+6.8 -0.6 59 +3 +3 1009.3 972.2
15 20.09 СЗ 5 60 км 8/8 600 м
[Sc]
+4.9 -2.4 59 +1 +1 1009.2 971.9
18 20.09 СЗ 1 60 км 6/3 600 м
[Sc Ac As]
-0.4 -2.4 86 -2 -2 1010.2 972.1 -0.4 +6.9
06 21.09 ЮВ 1 60 км 9/5 600 м
[Sc Cs]
-1.8 -2.7 94 -4 -4 1008.3 970.1 -3.4 -0.4
09 21.09 С 5 60 км 10/0
[Ac As Cs]
+3.7 -1.0 71 -1 -1 1007.8 970.4
12 21.09 СЗ 5 60 км 9/8 600 м
[Cu Sc Ci]
+5.1 -2.7 57 +1 +1 1009.1 971.8
15 21.09 60 км 4/4 1000 м
[Sc diur, vesp]
+3.7 -2.9 62 1010.4 972.9
18 21.09 СЗ 3 60 км 6/0 2000 м
[Ac As]
+1.7 -1.5 79 -2 -2 1012.3 974.4 -1.8 +5.8
06 22.09 СЗ 3 60 км 10/0 1000 м
[Ac trans]
+1.4 -0.8 85 -3 -3 1019.8 981.6 -2.2 +1.7
09 22.09 СЗ 5 60 км 10/10 600 м
[Sc]
+3.5 -0.5 75 -1 -1 1020.8 982.9
12 22.09 СЗ 5 60 км 8/8 600 м
[Sc]
+5.3 -3.2 54 +1 +2 1021.6 983.9
15 22.09 СЗ 5 60 км 9/9 600 м
[Sc diur, vesp]
+4.6 -3.1 57 0 0 1022.7 984.8
18 22.09 СЗ 1 60 км 3/3 600 м
[Sc diur, vesp]
+1.0 -2.0 80 -1 -1 1023.7 985.3 +1.0 +6.0

 

Местоположение метеостанции Кёутукейну (Норвегия): широта 69.00 долгота 23.03 высота над уровнем моря 307 м.

В архиве по умолчанию представлена погода в Кёутукейну за последнюю неделю. Архивные данные за месяц целиком и за предыдущие месяцы, начиная с января 2011 года, Вы можете получить, выбрав интересующий диапазон дат из раскрывающегося списка и нажав кнопку "Ввод!".


*Определитесь, кто Вы:
робот инопланетянин человек

Внимание! Время в таблицах - всемирное. Для получения местного времени необходимо прибавить поправку, которая равна 1 ч.

Смотрите также архив погоды в соседних городах и на ближайших метеорологических станциях:

Погода в Наккала (Финляндия) (50 км)
Погода в Каресуандо (Швеция) (65 км)
Погода в Суоловуопми-Лулит (Норвегия) (67 км)
Погода в Суовддатмохкки (Норвегия) (69 км)
Погода в Наймакке (Швеция) (70 км)
Погода на Саане (Финляндия) (87 км)
Погода в Килписйарви (Финляндия) (89 км)
Погода в Искорасе (Норвегия) (98 км)
Погода в Инари Анджели (Финляндия) (109 км)
Погода в Альта аэропорту (Норвегия) (110 км)

Пояснения к столбцам:

Ветер - указаны скорость ветра в м/с - средняя за 10 мин, порывы в срок и между сроками (в фигурных скобках) и направление, откуда дует ветер: С - северный, СВ - северо-восточный, В - восточный, ЮВ - юго-восточный, Ю - южный, ЮЗ - юго-западный, З - западный, СЗ - северо-западный.
Видимость - горизонтальная дальность видимости в метрах или километрах. При видимости от 1 до 10 км при отсутствии осадков обычно наблюдается дымка, при ухудшении видимости до 1 км и менее - туман. В сухую погоду видимость может ухудшаться дымом, пылью или мглою.
Явления - указаны атмосферные явления, наблюдавшиеся в срок или в последний час перед сроком; фигурными скобками обозначены явления, наблюдавшиеся между сроками (за 1-3 часа до срока); квадратными скобками обозначены град или гололедные отложения с указанием их диаметра в мм.
Облачность - указаны через наклонную черту общая и нижняя облачность в баллах и высота нижней границы облаков в метрах; квадратными скобками обозначены формы облаков: Ci - перистые, Cs - перисто-слоистые, Cc - перисто-кучевые, Ac - высококучевые, As - высокослоистые, Sc - слоисто-кучевые, Ns - слоисто-дождевые, Cu - кучевые, Cb - кучево-дождевые. Подробнее классификацию облаков см. в Атласе облаков (PDF).
T - Температура воздуха - температура, измеренная на высоте 2 м над землей.
Td - Температура точки росы - температура, при понижении до которой содержащийся в воздухе водяной пар достигнет насыщения.
f - Относительная влажность воздуха - влажноcть воздуха, измеренная на высоте 2 м над землей.
Te - Эффективная температура - температура, которую ощущает одетый по сезону человек в тени. Характеристика душности погоды. При расчете учитывается влияние влажности воздуха и скорости ветра на теплоощущения человека.
Tes - Эффективная температура на солнце - температура, которую ощущает человек, с поправкой на солнечный нагрев. Характеристика знойности погоды. Зависит от высоты солнца над горизонтом, облачности и скорости ветра. Ночью, в пасмурную погоду, а также при ветре 12 м/с и более поправка равна нулю.
P - Атмосферное давление - приведенное к уровню моря атмосферное давление.
Po - Атмосферное давление - измеренное на уровне метеостанции атмосферное давление.
Tmin - Минимальная температура - минимум температуры воздуха на высоте 2 м над землей.
Tmax - Максимальная температура - максимум температуры воздуха на высоте 2 м над землей.
R - Количество осадков - Количество выпавших осадков за период времени, мм. При наведении курсора мыши на число - период времени, за который выпало указанное количество осадков.
R24 - Количество осадков - Количество выпавших осадков за 24 часа, мм.
S - Снежный покров - Высота снежного покрова, см. При наведении курсора мыши на число - состояние снежного покрова и степень покрытия местности в баллах.